Miami, FL

1:41 PM EST on December 15, 2019 (GMT -0500)
Miami International

Weather History for KMIA - September, 2019

Change the Weather History Date:

Sunday, September 22, 2019

  Actual Average Record
Temperature  
Mean Temperature 85 °F 83 °F  
Max Temperature 89 °F 89 °F 94 °F (1990)
Min Temperature 80 °F 76 °F 64 °F (1938)
Degree Days  
Heating Degree Days 0 0  
Month to date heating degree days 0 0  
Since 1 July heating degree days 0 0  
Cooling Degree Days 20 18  
Month to date cooling degree days 463 398  
Year to date cooling degree days 3941 3473  
Growing Degree Days 34 (Base 50)    
Moisture  
Dew Point 68 °F    
Average Humidity 60    
Maximum Humidity 69    
Minimum Humidity 50    
Precipitation  
Precipitation 0.00 in 0.34 in 4.62 in (1948)
Month to date precipitation 3.24 7.27  
Year to date precipitation 55.16 47.67  
Snow  
Snow 0.00 in - - ()
Month to date snowfall 0.0  
Since 1 July snowfall 0.0  
Since 1 September snowfall 0.0  
Snow Depth 0.00 in    
Sea Level Pressure  
Sea Level Pressure 30.00 in    
Wind  
Wind Speed 15 mph (NE)    
Max Wind Speed 24 mph    
Max Gust Speed 31 mph    
Visibility 10 miles    
Events      
T = Trace of Precipitation, MM = Missing Value Source: NWS Daily Summary

Daily Weather History Graph

Daily Weather History Graph

Search for Another Location

Airport or City:

Astronomy

Sep. 22, 2019 Rise Set
Actual Time 7:09 AM EDT 7:17 PM EDT
Civil Twilight 6:46 AM EDT 7:40 PM EDT
Nautical Twilight 6:19 AM EDT 8:07 PM EDT
Astronomical Twilight 5:53 AM EDT 8:34 PM EDT
Moon 12:32 AM EDT (9/22) 2:35 PM EDT (9/22)
Length of Visible Light 12h 54m
Length of Day
12h 08m
Last Quarter, 44% of the Moon is Illuminated
Sep 22
Last Quarter
Sep 28
New
Oct 5
First Quarter
Oct 13
Full
Oct 21
Last Quarter

Hourly Weather History & Observations

Time (EDT) Temp. Heat Index Dew Point Humidity Pressure Visibility Wind Dir Wind Speed Gust Speed Precip Events Conditions
12:53 AM 81.0 °F 84.9 °F 71.1 °F 72% 30.02 in 10.0 mi NE 15.0 mph 24.2 mph 0.00 in   Mostly Cloudy
1:53 AM 81.0 °F 84.4 °F 70.0 °F 69% 30.01 in 10.0 mi NE 15.0 mph 21.9 mph N/A   Mostly Cloudy
2:53 AM 81.0 °F 84.1 °F 69.1 °F 67% 30.00 in 10.0 mi NE 15.0 mph 23.0 mph N/A   Mostly Cloudy
3:53 AM 81.0 °F 83.3 °F 66.9 °F 62% 29.99 in 10.0 mi ENE 13.8 mph 25.3 mph N/A   Mostly Cloudy
4:53 AM 80.1 °F 82.1 °F 66.0 °F 62% 29.99 in 10.0 mi NE 15.0 mph 21.9 mph N/A   Scattered Clouds
5:53 AM 80.1 °F 82.3 °F 66.9 °F 64% 29.99 in 10.0 mi NE 11.5 mph 20.7 mph N/A   Scattered Clouds
6:53 AM 80.1 °F 82.3 °F 66.9 °F 64% 29.99 in 10.0 mi ENE 15.0 mph 21.9 mph N/A   Scattered Clouds
7:53 AM 80.1 °F 82.7 °F 68.0 °F 67% 30.00 in 10.0 mi NE 11.5 mph 20.7 mph N/A   Scattered Clouds
8:53 AM 82.0 °F 84.9 °F 68.0 °F 62% 30.02 in 10.0 mi ENE 13.8 mph 21.9 mph N/A   Mostly Cloudy
9:53 AM 82.9 °F 85.4 °F 66.9 °F 58% 30.04 in 10.0 mi ENE 15.0 mph 23.0 mph N/A   Mostly Cloudy
10:53 AM 84.0 °F 86.3 °F 66.0 °F 55% 30.04 in 10.0 mi ENE 16.1 mph 27.6 mph N/A   Mostly Cloudy
11:53 AM 84.0 °F 86.5 °F 66.9 °F 56% 30.05 in 10.0 mi ENE 20.7 mph 27.6 mph N/A   Mostly Cloudy
12:53 PM 84.9 °F 87.6 °F 66.9 °F 55% 30.04 in 10.0 mi ENE 16.1 mph 25.3 mph N/A   Mostly Cloudy
1:53 PM 88.0 °F 90.7 °F 66.9 °F 49% 30.01 in 10.0 mi ENE 15.0 mph 28.8 mph N/A   Overcast
2:53 PM 84.9 °F 88.8 °F 69.1 °F 59% 29.99 in 10.0 mi NE 18.4 mph 26.5 mph N/A   Overcast
3:53 PM 84.9 °F 89.4 °F 70.0 °F 61% 29.97 in 10.0 mi NE 12.7 mph 25.3 mph N/A   Overcast
4:53 PM 84.9 °F 89.4 °F 70.0 °F 61% 29.97 in 10.0 mi NE 15.0 mph 24.2 mph N/A   Overcast
5:53 PM 84.0 °F 88.4 °F 70.0 °F 63% 29.97 in 10.0 mi NE 19.6 mph 24.2 mph N/A   Overcast
6:53 PM 82.9 °F 87.0 °F 70.0 °F 65% 29.96 in 10.0 mi NE 18.4 mph 26.5 mph N/A   Mostly Cloudy
7:53 PM 82.0 °F 85.9 °F 70.0 °F 67% 29.98 in 10.0 mi NE 15.0 mph 21.9 mph N/A   Overcast
8:53 PM 82.0 °F 85.9 °F 70.0 °F 67% 30.00 in 10.0 mi NE 10.4 mph - N/A   Overcast
9:53 PM 82.0 °F 85.9 °F 70.0 °F 67% 30.01 in 10.0 mi NE 12.7 mph - N/A   Mostly Cloudy
10:53 PM 82.0 °F 85.5 °F 69.1 °F 65% 30.01 in 10.0 mi NE 13.8 mph 19.6 mph N/A   Mostly Cloudy
11:53 PM 81.0 °F 84.1 °F 69.1 °F 67% 30.00 in 10.0 mi NE 12.7 mph - N/A   Scattered Clouds